Date String (YYYY-MM-DD hh:mm:ss) UTC,Instrument flags,absolute air pressure of the measurement (hPa),sample flow rate (lpm),inlet stack bypass flow (lpm),air temperature of the measurement (°C),ambient temperature measured by the external sensor (°C),aerosol sample conditioner tube jacket temperature (°C),OPC LED temperature (°C),internal box temperature (°C),relative humidity of the measurement (%),span deviation,mass concentration of particles derived from Lorenz-Mie calculation of OPC scattering (μg/m³),mass concentration of particles derived from Lorenz-Mie calculation of OPC scattering (μg/m³),mass concentration of particles derived from Lorenz-Mie calculation of OPC scattering (μg/m³)
DateTimeUTC,F1_M11,P_M11,Q1_M11,Q2_M11,T1_M11,T2_M11,T3_M11,T4_M11,T5_M11,U1_M11,ZSPAN_M11,X0_M11,X2_M11,X1_M11
2023-11-15 19:00:00,SystemResetWarning,0832.5,4.99,000.00,028.2,027.4,000.0,036.5,029.6,8.0,0000.1,0009.85,0004.28,0003.47
2023-11-15 19:01:00,SystemResetWarning,0832.4,4.99,000.00,028.3,027.4,000.0,036.5,029.7,7.7,0001.8,0009.65,0004.20,0003.42
2023-11-15 19:02:00,SystemResetWarning,0832.4,5.00,000.00,028.3,027.4,000.0,036.5,029.7,7.8,0002.4,0009.67,0004.13,0003.37
2023-11-15 19:03:00,SystemResetWarning,0832.4,5.01,000.00,028.3,027.4,000.0,036.5,029.6,8.0,0003.0,0009.50,0004.08,0003.35
2023-11-15 19:04:00,SystemResetWarning,0832.3,5.01,000.00,028.3,027.4,000.0,036.5,029.7,7.8,0003.4,0009.71,0004.03,0003.31
2023-11-15 19:05:00,SystemResetWarning,0832.3,5.00,000.00,028.3,027.4,000.0,036.5,029.7,7.8,0002.2,0010.16,0003.97,0003.28
2023-11-15 19:06:00,SystemResetWarning,0832.3,4.99,000.00,028.3,027.4,000.0,036.6,029.7,7.5,0002.2,0010.24,0003.93,0003.26
2023-11-15 19:07:00,SystemResetWarning,0832.3,4.99,000.00,028.3,027.4,000.0,036.6,029.7,7.3,0000.0,0009.93,0003.89,0003.24
2023-11-15 19:08:00,SystemResetWarning,0832.3,4.99,000.00,028.3,027.4,000.0,036.6,029.7,7.3,0000.9,0010.04,0003.89,0003.23
2023-11-15 19:09:00,SystemResetWarning,0832.3,5.01,000.00,028.3,027.5,000.0,036.6,029.7,7.4,0000.0,0010.36,0003.93,0003.24
2023-11-15 19:10:00,SystemResetWarning,0832.3,5.01,000.00,028.3,027.5,000.0,036.6,029.7,7.6,0000.0,0010.88,0003.93,0003.22
2023-11-15 19:11:00,SystemResetWarning,0832.3,5.00,000.00,028.4,027.5,000.0,036.6,029.7,7.9,0000.0,0011.02,0003.95,0003.21
2023-11-15 19:12:00,SystemResetWarning,0832.2,5.00,000.00,028.4,027.5,000.0,036.6,029.7,7.9,0000.0,0011.81,0003.94,0003.19
2023-11-15 19:13:00,SystemResetWarning,0832.2,4.99,000.00,028.4,027.5,000.0,036.6,029.8,7.8,0000.0,0012.83,0003.87,0003.15
2023-11-15 19:14:00,SystemResetWarning,0832.2,5.00,000.00,028.4,027.5,000.0,036.6,029.8,7.5,0000.0,0013.35,0003.89,0003.11
2023-11-15 19:15:00,SystemResetWarning,0832.2,5.00,000.00,028.4,027.6,000.0,036.6,029.8,7.5,0000.0,0014.09,0003.88,0003.06
2023-11-15 19:16:00,SystemResetWarning,0832.2,5.00,000.00,028.4,027.6,000.0,036.6,029.8,7.6,0000.0,0013.81,0003.86,0003.01
2023-11-15 19:17:00,SystemResetWarning,0832.2,5.00,000.00,028.4,027.6,000.0,036.7,029.8,7.7,0000.0,0013.78,0003.85,0002.95
2023-11-15 19:18:00,SystemResetWarning,0832.2,5.00,000.00,028.4,027.6,000.0,036.7,029.8,7.6,0000.0,0013.82,0003.87,0002.92
2023-11-15 19:19:00,SystemResetWarning,0832.2,5.00,000.00,028.4,027.6,000.0,036.7,029.8,7.5,0000.0,0013.48,0003.81,0002.86
2023-11-15 19:20:00,SystemResetWarning,0832.2,4.99,000.00,028.4,027.6,000.0,036.7,029.8,7.8,0000.0,0012.89,0003.73,0002.75
2023-11-15 19:21:00,SystemResetWarning,0832.2,4.99,000.00,028.4,027.6,000.0,036.7,029.8,7.9,0000.0,0012.31,0003.67,0002.67
2023-11-15 19:22:00,SystemResetWarning,0832.2,5.00,000.00,028.5,027.6,000.0,036.7,029.8,7.8,0000.0,0012.15,0003.64,0002.62
2023-11-15 19:23:00,SystemResetWarning,0832.2,5.01,000.00,028.5,027.6,000.0,036.7,029.8,7.9,0000.0,0011.53,0003.62,0002.61
2023-11-15 19:24:00,SystemResetWarning,0832.2,5.00,000.00,028.5,027.6,000.0,036.7,029.8,7.8,0000.0,0011.46,0003.67,0002.61
2023-11-15 19:25:00,SystemResetWarning,0832.2,5.00,000.00,028.5,027.6,000.0,036.7,029.8,7.8,0000.0,0011.02,0003.68,0002.63
2023-11-15 19:26:00,SystemResetWarning,0832.1,5.00,000.00,028.5,027.6,000.0,036.7,029.9,7.9,0000.0,0009.70,0003.65,0002.65
2023-11-15 19:27:00,SystemResetWarning,0832.1,4.99,000.00,028.5,027.6,000.0,036.8,029.9,8.1,0000.0,0009.47,0003.62,0002.65
2023-11-15 19:28:00,SystemResetWarning,0832.0,5.00,000.00,028.5,027.7,000.0,036.8,029.9,8.0,0000.0,0009.42,0003.60,0002.65
2023-11-15 19:29:00,SystemResetWarning,0832.0,5.00,000.00,028.5,027.7,000.0,036.8,029.9,8.0,0000.0,0009.39,0003.56,0002.63
2023-11-15 19:30:00,SystemResetWarning,0832.0,5.00,000.00,028.5,027.7,000.0,036.8,029.9,8.0,0000.0,0010.19,0003.61,0002.63
2023-11-15 19:31:00,SystemResetWarning,0831.9,5.00,000.00,028.5,027.7,000.0,036.8,029.9,8.0,0000.0,0010.77,0003.65,0002.66
2023-11-15 19:32:00,SystemResetWarning,0831.9,5.00,000.00,028.5,027.7,000.0,036.8,029.9,8.1,0000.0,0010.78,0003.68,0002.69
2023-11-15 19:33:00,SystemResetWarning,0831.9,5.00,000.00,028.6,027.7,000.0,036.8,029.9,8.1,0000.0,0010.95,0003.71,0002.72
2023-11-15 19:34:00,SystemResetWarning,0831.8,5.01,000.00,028.6,027.7,000.0,036.8,030.0,8.1,0000.0,0010.91,0003.77,0002.75
2023-11-15 19:35:00,SystemResetWarning,0831.9,5.00,000.00,028.6,027.7,000.0,036.8,029.9,8.1,0000.0,0010.88,0003.75,0002.78
2023-11-15 19:36:00,SystemResetWarning,0831.8,4.99,000.00,028.6,027.7,000.0,036.8,029.9,8.1,0000.0,0010.97,0003.74,0002.80
2023-11-15 19:37:00,SystemResetWarning,0831.8,4.99,000.00,028.6,027.7,000.0,036.8,029.9,8.0,0000.0,0011.39,0003.73,0002.81
2023-11-15 19:38:00,SystemResetWarning,0832.0,4.99,000.00,028.6,027.7,000.0,036.8,030.0,8.3,0000.0,0011.70,0003.77,0002.83
2023-11-15 19:39:00,SystemResetWarning,0831.8,5.01,000.00,028.6,027.7,000.0,036.9,030.0,8.2,0000.0,0011.89,0003.79,0002.86
2023-11-15 19:40:00,SystemResetWarning,0831.8,5.00,000.00,028.6,027.7,000.0,036.8,030.0,8.1,0000.0,0012.23,0003.77,0002.87
2023-11-15 19:41:00,SystemResetWarning,0831.8,5.01,000.00,028.6,027.8,000.0,036.9,030.0,7.7,0000.0,0011.80,0003.72,0002.90
2023-11-15 19:42:00,SystemResetWarning,0832.3,5.00,000.00,028.6,027.8,000.0,036.9,030.0,7.6,0000.0,0011.27,0003.74,0002.95
2023-11-15 19:43:00,SystemResetWarning,0832.3,4.99,000.00,028.7,027.8,000.0,036.9,030.0,7.8,0000.0,0011.26,0003.75,0002.98
2023-11-15 19:44:00,SystemResetWarning,0831.7,4.99,000.00,028.7,027.8,000.0,036.9,030.1,7.6,0000.0,0012.18,0003.75,0003.03
2023-11-15 19:45:00,SystemResetWarning,0831.7,4.99,000.00,028.7,027.1,000.0,036.9,030.2,7.3,0000.0,0013.81,0003.76,0003.07
2023-11-15 19:46:00,SystemResetWarning,0831.6,5.00,000.00,028.6,025.1,000.0,036.8,029.8,7.3,0000.0,0013.42,0003.80,0003.09
2023-11-15 19:47:00,SystemResetWarning,0831.6,5.01,000.00,028.5,024.3,000.0,036.8,029.6,7.5,0000.0,0013.55,0003.81,0003.10
2023-11-15 19:48:00,SystemResetWarning,0831.6,5.01,000.00,028.3,024.4,000.0,036.7,029.2,7.7,0000.0,0013.46,0003.90,0003.10
2023-11-15 19:49:00,SystemResetWarning,0831.6,4.98,000.00,028.2,024.9,000.0,036.7,029.1,7.8,0000.0,0013.45,0003.91,0003.11
2023-11-15 19:50:00,SystemResetWarning,0831.5,5.00,000.00,028.1,025.3,000.0,036.6,029.1,8.0,0000.0,0013.37,0003.88,0003.11
2023-11-15 19:51:00,SystemResetWarning,0831.5,5.00,000.00,028.1,025.7,000.0,036.6,029.2,7.8,0000.0,0013.15,0003.87,0003.09
2023-11-15 19:52:00,SystemResetWarning,0831.5,4.99,000.00,028.1,026.0,000.0,036.6,029.3,7.1,0000.0,0012.90,0003.85,0003.04
2023-11-15 19:53:00,SystemResetWarning,0831.4,5.01,000.00,028.1,026.3,000.0,036.5,029.4,7.0,0000.0,0013.67,0003.85,0002.99
2023-11-15 19:54:00,SystemResetWarning,0831.4,5.00,000.00,028.1,026.5,000.0,036.5,029.4,7.2,0000.0,0013.59,0003.82,0002.97
2023-11-15 19:55:00,SystemResetWarning,0831.4,4.99,000.00,028.1,026.7,000.0,036.5,029.5,7.3,0000.0,0013.44,0003.80,0002.93
2023-11-15 19:56:00,SystemResetWarning,0831.4,5.00,000.00,028.1,026.8,000.0,036.5,029.5,7.1,0000.0,0011.68,0003.81,0002.88
2023-11-15 19:57:00,SystemResetWarning,0831.5,5.00,000.00,028.1,027.0,000.0,036.5,029.6,7.2,0000.0,0011.81,0003.78,0002.85
2023-11-15 19:58:00,SystemResetWarning,0831.5,5.00,000.00,028.2,027.1,000.0,036.5,029.6,7.1,0000.0,0011.98,0003.76,0002.80
2023-11-15 19:59:00,SystemResetWarning,0831.5,5.00,000.00,028.2,027.2,000.0,036.5,029.7,7.0,0000.0,0011.42,0003.66,0002.74
